This is the latest recevied weather packets stored in our database for station/object W8LMG. If no packets are shown the sender has not sent any weather packets the latest 10 day(s).
| Time | Temp. | Humidity | Pressure | Rain* | Wind** | Luminosity | Snow |
|---|---|---|---|---|---|---|---|
| 1778001650 | 22.78° C | 37% | 1013.8 hPa | 0 mm | - | 446 W/m² | - |
| 1778001345 | 22.78° C | 38% | 1013.9 hPa | 0 mm | - | 207 W/m² | - |
| 1778001042 | 22.22° C | 37% | 1014 hPa | 0 mm | - | 264 W/m² | - |
| 1778000739 | 22.22° C | 38% | 1014.1 hPa | 0 mm | - | 276 W/m² | - |
| 1778000436 | 22.22° C | 42% | 1014.4 hPa | 0 mm | - | 317 W/m² | - |
| 1778000131 | 22.22° C | 38% | 1014.3 hPa | 0 mm | - | 429 W/m² | - |
| 1777999827 | 21.67° C | 38% | 1014.1 hPa | 0 mm | - | 308 W/m² | - |
| 1777999523 | 21.67° C | 40% | 1014.3 hPa | 0 mm | - | 390 W/m² | - |
| 1777999221 | 21.67° C | 39% | 1014.4 hPa | 0 mm | - | 312 W/m² | - |
| 1777998919 | 22.22° C | 38% | 1014.4 hPa | 0 mm | - | 310 W/m² | - |
| 1777998616 | 22.22° C | 39% | 1014.3 hPa | 0 mm | - | 269 W/m² | - |
| 1777998309 | 21.67° C | 44% | 1014.2 hPa | 0 mm | - | 229 W/m² | - |
| 1777998006 | 21.67° C | 40% | 1014.5 hPa | 0 mm | - | 155 W/m² | - |
| 1777997702 | 21.67° C | 39% | 1014.6 hPa | 0 mm | - | 216 W/m² | - |
| 1777997400 | 21.67° C | 41% | 1014.5 hPa | 0 mm | - | 209 W/m² | - |
| 1777997098 | 22.22° C | 40% | 1014.6 hPa | 0 mm | - | 303 W/m² | - |
| 1777996794 | 21.11° C | 44% | 1014.6 hPa | 0 mm | - | 295 W/m² | - |
| 1777996491 | 21.11° C | 40% | 1014.6 hPa | 0 mm | - | 173 W/m² | - |
| 1777996188 | 21.11° C | 43% | 1014.8 hPa | 0 mm | - | 311 W/m² | - |
| 1777995884 | 21.67° C | 44% | 1014.7 hPa | 0 mm | - | 277 W/m² | - |
| 1777995580 | 21.67° C | 42% | 1014.8 hPa | 0 mm | - | 396 W/m² | - |
| 1777995278 | 21.67° C | 44% | 1014.9 hPa | 0 mm | - | 408 W/m² | - |
| 1777994974 | 21.67° C | 41% | 1014.8 hPa | 0 mm | - | 556 W/m² | - |
| 1777994672 | 21.11° C | 42% | 1014.8 hPa | 0 mm | - | 488 W/m² | - |
| 1777994372 | 21.67° C | 41% | 1015 hPa | 0 mm | - | 422 W/m² | - |
* Rain latest hour (hover to see other rain measurements)
** Current wind speed in m/s (hover to see current wind gust speed)